Погода в Сан-Франциско

США     37°45′33″N   122°26′49″W
темп.,
°C
ветер,
м/с
пор.,
м/с
влажн.,
%
обл.,
%
осадки,
мм/ч
давл.,
гПа
погр.,
м
6 мая, чт
чт623:00+11юз568910 0.0 1016244
02:00+10зюз47910 0.0 1016255
05:00+10з48880 0.0 1016276
08:00+11з36792 0.0 1018228
11:00+13з7107635 0.0 1018290
14:00+14з811725 0.0 1018324
17:00+13з8127833 0.0 1018317
20:00+11зсз813875 0.0 1018319
7 мая, пт
пт723:00+11зсз813840 0.0 1018332
02:00+10зсз7138820 0.0 1017385
05:00+10зсз711896 0.0 1017401
08:00+10с23810 0.0 1018238
11:00+12зсз33670 0.0 1019312
14:00+14з79631 0.0 1018283
17:00+13зсз1014635 0.0 1016287
20:00+12зсз69725 0.0 1015226
8 мая, сб
сб823:00+11сз24740 0.0 1016124
02:00+10в12750 0.0 101528
05:00+10сз11740 0.0 101622
08:00+11в01660 0.0 101756
11:00+14з33490 0.0 1018240
14:00+15зюз57520 0.0 1016175
17:00+15зсз8125418 0.0 1014197
20:00+13зсз58675 0.0 1014171
9 мая, вс
вс923:00+12сз34725 0.0 1014118
02:00+11зсз34745 0.0 1013113
05:00+10сз247677 0.0 101396
08:00+11зсз23725 0.0 1014132
11:00+14з45635 0.0 1013224
14:00+15зсз896316 0.0 1012219
17:00+14зсз912640 0.0 1010233
20:00+13зсз47750 0.0 1009175
10 мая, пн
пн1023:00+12ю13820 0.0 101079
02:00+11юз12840 0.0 101035
05:00+11ю11830 0.0 101114
08:00+12ю01750 0.0 101248
11:00+15зсз23570 0.0 1013240
14:00+15з57610 0.0 1012209
17:00+14з686410 0.0 1011177
20:00+11зюз45802 0.0 1011151